{"data":{"norad_id":57812,"epoch":"2026-09-20T21:41:25.043712Z","epoch_age_seconds":99735,"freshness":"FRESH","line1":"1 57812U 23138E   26263.90376208 -.00000630  00000+0 -13379-4 0  9991","line2":"2 57812  43.0023 211.7329 0000770 259.9538 100.1227 15.27572400168592","mean_motion":15.275724,"eccentricity":7.7e-5,"inclination_deg":43.0023,"raan_deg":211.7329,"arg_perigee_deg":259.9538,"mean_anomaly_deg":100.1227,"bstar":-1.3379e-5,"rev_number":16859,"period_min":94.267217710925,"perigee_km":482.54354018639,"apogee_km":483.60016634979,"semimajor_km":6861.2088532681,"source":"CELESTRAK","updated_at":"2026-09-21T09:00:33.707342Z"}}